Location: Trani
(41.2830°N, 16.4170°E)
Time: 16:56:39
(UTC+02:00)

ISS - Pass Details

Date: 13 May 2021
Orbit: 417 x 422 km, 51.6° (Epoch: 18 June)

Event Time Altitude Azimuth Distance (km) Brightness Sun altitude
Rises 03:38:12 0° 310° (NW) 2,375 0.1 -18.8°
Reaches altitude 10° 03:40:33 10° 324° (NW) 1,509 -0.8 -18.5°
Maximum altitude 03:43:26 25° 22° (NNE) 892 -1.4 -18.2°
Drops below altitude 10° 03:46:18 10° 80° (E) 1,507 -0.2 -17.8°
Sets 03:48:39 0° 94° (E) 2,370 0.7 -17.5°
